Weather History for Rawlins, WY

Change the Weather History Date:

Tuesday, October 11, 2011

  Actual Average Record
Temperature  
Mean Temperature 46 °F 45 °F  
Max Temperature 53 °F 59 °F 81 °F (1996)
Min Temperature 39 °F 32 °F 15 °F (1987)
Degree Days  
Heating Degree Days 19 20  
Month to date heating degree days 180 197  
Since 1 July heating degree days 411 583  
Cooling Degree Days 0 0  
Month to date cooling degree days 0 0  
Year to date cooling degree days 242 186  
Moisture  
Dew Point 36 °F    
Average Humidity 68    
Maximum Humidity 92    
Minimum Humidity 44    
Precipitation  
Precipitation 0.06 in 0.03 in 0.26 in (2013)
Month to date precipitation 0.52 0.31  
Year to date precipitation 7.97 7.83  
Sea Level Pressure  
Sea Level Pressure 29.86 in    
Wind  
Wind Speed 20 mph (WSW)    
Max Wind Speed 33 mph    
Max Gust Speed 40 mph    
Visibility 10 miles    
Events Rain    
T = Trace of Precipitation, MM = Missing Value Source: NWS Daily Summary

Daily Weather History Graph

Daily Weather History Graph

Search for Another Location

Airport:

Trip Planner

Search our weather history database for the weather conditions in past years. The results will help you decide how hot, cold, wet, or windy it might be!

Date:

Astronomy

Oct. 11, 2011 Rise Set
Actual Time 7:16 AM MDT 6:34 PM MDT
Civil Twilight 6:48 AM MDT 7:01 PM MDT
Nautical Twilight 6:16 AM MDT 7:34 PM MDT
Astronomical Twilight 5:43 AM MDT 8:06 PM MDT
Moon 6:06 PM MDT (10/11) 6:57 AM MDT (10/11)
Length of Visible Light 12h 13m
Length of Day
11h 17m
Full, 100% of the Moon is Illuminated
Oct 11
Full
Oct 11
Full
Oct 19
Last Quarter
Oct 26
New
Nov 2
First Quarter

Hourly Weather History & Observations

Time (MDT) Temp. Windchill Dew Point Humidity Pressure Visibility Wind Dir Wind Speed Gust Speed Precip Events Conditions
12:53 AM 41.0 °F 33.9 °F 37.0 °F 86% 29.84 in 10.0 mi WSW 12.7 mph - 0.02 in Rain Light Rain
1:53 AM 39.9 °F 32.5 °F 37.0 °F 89% 29.84 in 9.0 mi WSW 12.7 mph - 0.02 in Rain Light Rain
2:53 AM 39.9 °F 33.4 °F 36.0 °F 86% 29.82 in 10.0 mi SW 10.4 mph - 0.01 in Rain Light Rain
3:17 AM 39.2 °F 30.5 °F 35.6 °F 87% 29.96 in 10.0 mi WSW 16.1 mph - 0.00 in Rain Light Rain
4:23 AM 39.2 °F 32.5 °F 35.6 °F 87% 29.95 in 10.0 mi WSW 10.4 mph - 0.00 in Rain Light Rain
4:53 AM 39.9 °F 32.1 °F 37.0 °F 89% 29.81 in 10.0 mi WSW 13.8 mph - 0.00 in   Overcast
5:53 AM 41.0 °F 33.9 °F 37.0 °F 86% 29.80 in 10.0 mi WSW 12.7 mph 19.6 mph N/A   Overcast
6:18 AM 41.0 °F 32.5 °F 37.4 °F 87% 29.93 in 10.0 mi WSW 17.3 mph 23.0 mph N/A   Overcast
8:36 AM 42.8 °F 33.5 °F 35.6 °F 76% 29.94 in 10.0 mi WSW 23.0 mph 28.8 mph N/A   Scattered Clouds
8:53 AM 43.0 °F 34.5 °F 37.0 °F 80% 29.83 in 10.0 mi WSW 19.6 mph 26.5 mph N/A   Mostly Cloudy
9:44 AM 44.6 °F 36.4 °F 37.4 °F 76% 29.94 in 10.0 mi WSW 20.7 mph 32.2 mph N/A   Mostly Cloudy
9:53 AM 45.0 °F 37.1 °F 36.0 °F 71% 29.81 in 10.0 mi WSW 19.6 mph 33.4 mph N/A   Mostly Cloudy
10:53 AM 48.0 °F - 37.0 °F 66% 29.81 in 10.0 mi WSW 26.5 mph 40.3 mph N/A   Overcast
11:53 AM 48.9 °F - 36.0 °F 61% 29.81 in 10.0 mi WSW 26.5 mph 35.7 mph N/A   Mostly Cloudy
12:12 PM 51.8 °F - 35.6 °F 54% 29.94 in 10.0 mi West 23.0 mph 36.8 mph N/A   Mostly Cloudy
12:53 PM 50.0 °F - 36.0 °F 59% 29.81 in 10.0 mi WSW 21.9 mph 38.0 mph N/A   Mostly Cloudy
1:53 PM 51.1 °F - 37.0 °F 59% 29.80 in 10.0 mi WSW 20.7 mph 29.9 mph 0.01 in   Partly Cloudy
2:53 PM 48.9 °F - 39.0 °F 69% 29.81 in 10.0 mi SW 20.7 mph 32.2 mph 0.00 in Rain Light Rain
3:53 PM 53.1 °F - 37.0 °F 55% 29.80 in 10.0 mi West 23.0 mph 28.8 mph 0.00 in   Overcast
4:53 PM 52.0 °F - 34.0 °F 50% 29.81 in 10.0 mi West 19.6 mph 29.9 mph 0.00 in   Mostly Cloudy
5:53 PM 51.1 °F - 30.9 °F 46% 29.81 in 10.0 mi West 21.9 mph 31.1 mph N/A   Clear
6:53 PM 50.0 °F - 30.9 °F 48% 29.85 in 10.0 mi West 28.8 mph 34.5 mph N/A   Overcast
7:53 PM 48.9 °F - 32.0 °F 52% 29.87 in 10.0 mi West 21.9 mph 28.8 mph 0.00 in   Overcast
8:53 PM 46.9 °F - 34.0 °F 61% 29.88 in 10.0 mi WSW 21.9 mph 28.8 mph 0.00 in Rain Light Rain
9:53 PM 45.0 °F 36.0 °F 35.1 °F 68% 29.91 in 10.0 mi West 25.3 mph 35.7 mph 0.00 in   Overcast
10:53 PM 43.0 °F 34.8 °F 34.0 °F 71% 29.91 in 10.0 mi WSW 18.4 mph 26.5 mph N/A   Partly Cloudy
11:53 PM 42.1 °F 33.9 °F 33.1 °F 70% 29.93 in 10.0 mi West 17.3 mph 28.8 mph N/A   Clear